Regional Weather Roundup
Issued by NWS San Diego, CA

Home | Current Version | Previous Version | Text Only | Print | Product List | Glossary On
Versions: 1 2 3 4 5 6 7 8 9 10 11 12 13 14 15 16 17 18 19 20 21 22 23 24 25 26 27
000
ASUS46 KSGX 010711
RWRSGX

SAN DIEGO HOURLY WEATHER ROUNDUP
NATIONAL WEATHER SERVICE SAN DIEGO CA
1200 AM PDT SUN MAY 01 2016

NOTE: "FAIR" INDICATES FEW OR NO CLOUDS BELOW 12,000 FEET WITH NO
SIGNIFICANT WEATHER AND/OR OBSTRUCTIONS TO VISIBILITY.

CAZ042-043-060-061-PZZ750-775-010800-

GREATER SAN DIEGO AREA

CITY           SKY/WX    TMP DP  RH WIND       PRES   REMARKS
LINDBERGH FLD  PTCLDY    62  53  72 S6        29.88F
POINT LOMA       N/A     58  54  88 S5          N/A
NATIONAL CITY    N/A     60  54  80 CALM      29.88S
CHULA VISTA      N/A     57  53  85 SW1       29.79F
IMPERIAL BEACH MOCLDY    55  49  80 CALM      29.87F
BROWN FIELD    CLEAR     55  50  83 E5        29.87S
MIRAMAR MCAS   PTCLDY    55  48  77 E5        29.86S
MONTGOMERY FLD CLEAR     57  50  77 E3        29.87S

$$

NORTH SAN DIEGO COUNTY

CITY           SKY/WX    TMP DP  RH WIND       PRES   REMARKS
CAMP PENDLETON CLEAR     53  50  89 NE3       29.86S
OCEANSIDE AP   CLEAR     53  48  83 CALM      29.86S
OCEANSIDE HBR    N/A     60  54  82 CALM      29.89R
VISTA            N/A     54  49  84 CALM      29.85S
CARLSBAD       CLEAR     58  52  80 SE5       29.85S
DEL MAR          N/A     56  52  86 CALM      29.89S
LA JOLLA SCRIP   N/A     57  53  85 E1        29.86F
FALLBROOK        N/A     54  53  96 CALM      29.86R
SAN MARCOS       N/A     56  47  73 CALM      29.85S
POWAY            N/A     53  48  84 CALM      29.88F

$$

EAST SAN DIEGO COUNTY

CITY           SKY/WX    TMP DP  RH WIND       PRES   REMARKS
RAMONA         CLEAR     47  44  90 NE5       29.87S
SANTEE LAKES     N/A     52  49  89 CALM      29.86S
LA MESA          N/A     55  51  87 CALM      29.81S
JAMUL            N/A     53  49  85 CALM      29.88S
DESCANSO N       N/A     45  43  92 CALM      29.79R
MT. LAGUNA OBS   N/A     38  38 100 NW3       29.51
CAMPO            N/A     49  46  90 SW9       29.84S

$$

ORANGE COUNTY AND THE LOS ANGELES BASIN

CITY           SKY/WX    TMP DP  RH WIND       PRES   REMARKS
JOHN WAYNE AP  CLEAR     59  51  75 CALM      29.85S
LAKE FOREST FR   N/A     54  46  73 CALM      29.76R
HUNTINGTON BCH   N/A     55  52  88 CALM      29.88R
LOS ALAMITOS   FAIR      57  52  83 SE2       29.85R
FULLERTON      CLEAR     60  52  74 CALM      29.85R
LONG BEACH     CLEAR     59  52  77 SE3       29.85S
L.A. AP        PTCLDY    59  50  72 CALM      29.85S
L.A. DOWNTOWN  CLEAR     59  51  75 CALM      29.85R

$$

THE INLAND EMPIRE

CITY           SKY/WX    TMP DP  RH WIND       PRES   REMARKS
CORONA         MOCLDY    52  44  74 CALM      29.86R
CHINO          PTCLDY    57  47  69 NW3       29.86R
ONTARIO        MOCLDY    56  45  66 NW6       29.85R
RIVERSIDE AP   CLOUDY    58  45  62 CALM      29.85S
MORENO VALLEY    N/A     53  51  93 CALM      27.98R
MARCH ARB      PTCLDY    51  51  98 SE3       29.86R
HORSETHIEF CYN   N/A     55  46  73 S3        29.88S
PERRIS           N/A     53  51  92 S3          N/A
HEMET EAST       N/A     53  45  74 CALM      29.77S
FRENCH VALLEY  PTSUNNY   54  48  82 CALM      29.87R
TEMECULA         N/A     55  52  89 S1        29.84S

$$

SAN BERNARDINO AND RIVERSIDE COUNTY MOUNTAINS

CITY           SKY/WX    TMP DP  RH WIND       PRES   REMARKS
BIG BEAR AP    CLOUDY    41  34  75 NE5       29.94S
PINE COVE        N/A     40  41 100 CALM      29.87S

$$

SOUTHERN DESERT INCLUDING THE COACHELLA VALLEY

CITY           SKY/WX    TMP DP  RH WIND       PRES   REMARKS
PALM SPRINGS   PTCLDY    68  47  46 NW8       29.76S
THOUSAND PALMS   N/A     67  47  48 W15       29.73F
PALM DESERT      N/A     67  49  52 CALM        N/A
THERMAL        CLEAR     71  47  42 NW13      29.73R
BLYTHE         PTCLDY    63  47  55 CALM      29.75R
IMPERIAL AP    CLOUDY    67  47  48 W9        29.73S
EL CENTRO NAS  PTCLDY   N/A N/A N/A W13       29.76R
YUMA AZ        PTCLDY    65  46  50 NW6       29.73
MEXICALI       CLEAR     68  45  42 W7        29.75S

$$

UPPER DESERT

CITY           SKY/WX    TMP DP  RH WIND       PRES   REMARKS
VICTORVILLE AP PTCLDY    54  36  50 CALM      29.86R
HESPERIA         N/A     51  40  67 W1        29.97R
PALMDALE       MOCLDY    56  39  53 CALM      29.87S
LANCASTER      CLOUDY    57  32  38 S6        29.87R
EDWARDS AFB    MOCLDY    56  34  43 SW6       29.84R
DAGGETT        PTCLDY    59  43  55 SW9       29.82S
29 PALMS N     PTCLDY    60  41  49 NW7       29.87S
NEEDLES        PTCLDY    64  47  53 N10       29.76R

$$

REGIONAL REPORTS

CITY           SKY/WX    TMP DP  RH WIND       PRES   REMARKS
SANTA BARBARA  CLEAR     55  48  77 CALM      29.82R
SANDBERG       CLEAR     52  29  41 NW14      29.93S
LAS VEGAS NV   PTCLDY    61  46  57 N10       29.79S
PHOENIX AZ     PTCLDY    63  48  58 NE7       29.73R
TIJUANA        CLEAR     57  46  67 NE5       29.89S
ENSENADA NW      N/A     57  32  38 NE3       29.86S

$$

OFFSHORE ISLANDS

CITY           SKY/WX    TMP DP  RH WIND       PRES   REMARKS
CATALINA ARPT  CLEAR     51  41  68 SE3       29.86S
SAN NICOLAS IS CLEAR    N/A N/A N/A W12       29.84R

$$

MARINE AND OFFSHORE BUOY REPORTS

STATION/POSITION SKY/WX   TEMP    WIND        PRES    SWELL
                          AIR SEA DIR/SP/G            HT/PER/DIR
                          (F)     (DEG/KT/KT) (MB)    (FT/S/D)
TANNER BANKS               57 58  300/ 16/ 17 1011.0F  10/320/10
S CLEMENTE BASIN           58 61  270/  6/  6 1011.2R   7/180/19
SAN NICOLAS IS.               57                N/A     5/170/18
SO. S. ROSA ISLA           55 55  280/ 12/ 16 1010.2F   8/290/11
W. S. BARBARA CH           53 52  300/ 12/ 14 1009.5F   8/310/11
M. S. BARBARA CH           55 56  210/ 10/ 14 1010.3R
S. MONICA BASIN            58 60  180/  2/  2 1010.7R   5/160/17
S PEDRO CHANNEL               62                N/A     2/270/11
OCEANSIDE OFFSHR              64                N/A     3/190/18
TORREY PINES OTR              64                N/A     3/190/18
LA JOLLA 1                 59 65  130/  5/  6 1011.2F
SAN DIEGO BAY                 68              1011.6F
POINT LOMA SOUTH              63                N/A     5/190/18

$$





USA.gov is the U.S. government's official web portal to all federal, state and local government web resources and services.